Regional Weather Roundup
Issued by NWS

Home | Current Version | Previous Version | Text Only | Print | Product List | Glossary On
Versions: 1 2 3 4 5 6 7 8 9 10 11 12 13 14 15 16 17 18 19 20 21 22 23 24 25 26 27 28 29 30 31 32 33 34 35 36 37 38 39 40 41 42 43 44 45 46 47 48 49 50
339
ASUS43 KDTX 261810
RWRMI
MICHIGAN HOURLY REGIONAL WEATHER ROUNDUP
NATIONAL WEATHER SERVICE DETROIT/PONTIAC MI
100 PM EST SUN FEB 26 2017

NOTE: "FAIR" INDICATES FEW OR NO CLOUDS BELOW 12,000 FEET WITH NO
SIGNIFICANT WEATHER AND/OR OBSTRUCTION TO VISIBILITY.

MIZ047>049-052>055-059>063-066>070-074>076-081>083-261900-
SOUTHEAST LOWER MICHIGAN

CITY           SKY/WX    TMP DP  RH WIND       PRES   REMARKS
ADRIAN         MOSUNNY   35  20  54 SW18G26   30.08F WCI  24
6HR MIN TEMP:  21; 6HR MAX TEMP:  35;

ALMA           MOSUNNY   36  16  43 SW17G25   29.96F WCI  26
6HR MIN TEMP:  22; 6HR MAX TEMP:  37;

ANN ARBOR      MOSUNNY   36  21  54 S14G26    30.06F WCI  27
BAD AXE        SUNNY     35  17  48 SW15G23   29.96F WCI  25
6HR MIN TEMP:  23; 6HR MAX TEMP:  35;

CARO           SUNNY     38  17  44 SW16G23   29.97F WCI  28
DETROIT CITY   SUNNY     37  18  46 S17G25    30.06F WCI  27
6HR MIN TEMP:  23; 6HR MAX TEMP:  37;

DETROIT        CLOUDY    37  18  46 SW18G25   30.07F WCI  27
6HR MIN TEMP:  24; 6HR MAX TEMP:  37;

FLINT          PTSUNNY   37  17  44 SW18G26   30.01F WCI  27
6HR MIN TEMP:  22; 6HR MAX TEMP:  37;

GROSSE ILE     SUNNY     36  22  58 S20G25    30.07F WCI  25
6HR MIN TEMP:  24; 6HR MAX TEMP:  36;

HILLSDALE      PTSUNNY   34  21  60 SW14G20   30.03F WCI  24
HOWELL         PTSUNNY   36  17  44 SW15G26   30.01F WCI  27
6HR MIN TEMP:  21; 6HR MAX TEMP:  36;


CITY           SKY/WX    TMP DP  RH WIND       PRES   REMARKS
JACKSON        MOSUNNY   36  16  44 SW15G25   30.02F WCI  27
6HR MIN TEMP:  21; 6HR MAX TEMP:  36;

LAMBERTVILLE   SUNNY     38  19  46 SW14G24   30.10S WCI  30
6HR MIN TEMP:  24; 6HR MAX TEMP:  38;

LANSING        CLOUDY    37  17  44 S22G28    30.00F WCI  26
6HR MIN TEMP:  21; 6HR MAX TEMP:  38;

LAPEER         FAIR      37  17  44 SW15      30.00F WCI  28
6HR MIN TEMP:  22; 6HR MAX TEMP:  37;

MASON          MOSUNNY   36  21  55 S9G17     30.01F WCI  29
MONROE         SUNNY     37  22  54 SW14G20   30.09F WCI  28
6HR MIN TEMP:  24; 6HR MAX TEMP:  37;

MT. CLEMENS    MOSUNNY   37  18  46 SW14      30.03F WCI  29
6HR MIN TEMP:  23; 6HR MAX TEMP:  37;

PONTIAC        PTSUNNY   35  16  45 S15G24    30.00F WCI  25
6HR MIN TEMP:  21; 6HR MAX TEMP:  35;

PORT HOPE        N/A     35  17  47 SW13G23   29.94F WCI  26
6HR MIN TEMP:  25; 6HR MAX TEMP:  35;

PORT HURON     MOSUNNY   34  21  60 S20G25    30.04F WCI  22
TRI CITIES     MOSUNNY   35  18  49 SW16      29.96F WCI  25
6HR MIN TEMP:  23; 6HR MAX TEMP:  36;

MIDLAND        FAIR      36  18  48 S14G23    29.94F WCI  27
6HR MIN TEMP:  22; 6HR MAX TEMP:  36;

TROY           SUNNY     37  14  39 SW10G22   30.05F WCI  29
SAGINAW HB     MOSUNNY   36  18  48 SW17      29.97F WCI  25
$$
MIZ043>046-050>051-056>058-064>065-071>073-077>080-261900-
SOUTHWEST LOWER MICHIGAN

CITY           SKY/WX    TMP DP  RH WIND       PRES   REMARKS
BATTLE CREEK   CLOUDY    35  21  56 S16       30.00F WCI  25
6HR MIN TEMP:  18; 6HR MAX TEMP:  35;

BENTON HARBOR  CLOUDY    40  19  43 S14G26    29.97F WCI  32
6HR MIN TEMP:  23; 6HR MAX TEMP:  40;

BIG RAPIDS     CLOUDY    31  21  65 S14G23    29.88F WCI  21
6HR MIN TEMP:  17; 6HR MAX TEMP:  33;

COLDWATER      PTSUNNY   37  17  44 SW15G23   30.03F WCI  28
6HR MIN TEMP:  20; 6HR MAX TEMP:  37;

FREMONT        PTSUNNY   33  24  69 S22       29.89F WCI  20
HOLLAND        CLOUDY    36  21  54 S22G29    29.94F WCI  25
6HR MIN TEMP:  23; 6HR MAX TEMP:  36;

GRAND RAPIDS   FLURRIES  33  21  61 S18G31    29.95  WCI  22
6HR MIN TEMP:  20; 6HR MAX TEMP:  34; 6HR PCP: TRACE;

IONIA          CLOUDY    34  17  48 SW21      29.97F WCI  23
6HR MIN TEMP:  22; 6HR MAX TEMP:  36;

KALAMAZOO      CLOUDY    36  20  52 S21       30.00F WCI  25
6HR MIN TEMP:  23; 6HR MAX TEMP:  36;

LUDINGTON      CLOUDY    34  28  78 S22G32    29.86F WCI  22
6HR MIN TEMP:  29; 6HR MAX TEMP:  34;

MARSHALL       CLOUDY    36  20  52 SW13G23   30.02F WCI  27
6HR MIN TEMP:  21; 6HR MAX TEMP:  36;

MOUNT PLEASANT MOSUNNY   36  17  46 S13G23    29.92F WCI  28
6HR MIN TEMP:  22; 6HR MAX TEMP:  37;

MUSKEGON       CLOUDY    35  24  64 S25G32    29.92F WCI  23
6HR MIN TEMP:  28; 6HR MAX TEMP:  35; 6HR PCP: TRACE;

SOUTH HAVEN    CLOUDY    36  21  53 S15G22    29.97F WCI  27
$$
MIZ016>042-261900-
NORTHERN LOWER MICHIGAN

CITY           SKY/WX    TMP DP  RH WIND       PRES   REMARKS
ALPENA         MOSUNNY   35  20  54 S16G28    29.84F WCI  25
6HR MIN TEMP:  21; 6HR MAX TEMP:  35;

BEAVER ISLAND  LGT SNOW  31  28  90 S13G23    29.75F WCI  21
6HR MIN TEMP:  27; 6HR MAX TEMP:  31;

BELLAIRE       CLOUDY    33  23  67 S14G23    29.82F WCI  23
6HR MIN TEMP:  20; 6HR MAX TEMP:  33;

CADILLAC       LGT SNOW  30  25  79 SW17G29   29.81F WCI  19
CHARLEVOIX     CLOUDY    32  25  74 S18G24    29.81F WCI  20
FRANKFORT      LGT SNOW  32  30  93 S16G28    29.82F WCI  21
GAYLORD        CLOUDY    31  20  63 SW15G24   29.79F WCI  20
6HR MIN TEMP:  16; 6HR MAX TEMP:  31; 6HR PCP: TRACE;

GRAYLING       CLOUDY    32  22  67 S15       29.83F WCI  22
HARBOR SPRINGS CLOUDY    32  23  70 SW15G22   29.79F WCI  21
HOUGHTON LAKE  CLOUDY    34  21  59 SW15G25   29.85F WCI  24
6HR MIN TEMP:  17; 6HR MAX TEMP:  34;

MANISTEE       SNOW      32  28  86 S14       29.84F VSB 1/2 WCI  22
OSCODA         MOSUNNY   37  19  48 SW16G28   29.89F WCI  27
6HR MIN TEMP:  18; 6HR MAX TEMP:  37;

PELLSTON       CLOUDY    32  21  64 S16G23    29.78F WCI  21
6HR MIN TEMP:  23; 6HR MAX TEMP:  32; 6HR PCP: TRACE;

TRAVERSE CITY  LGT SNOW  33  26  75 SW13G22   29.81F BLWGSNOWWCI  24
6HR MIN TEMP:  22; 6HR MAX TEMP:  35; 6HR PCP: TRACE;

$$
MIZ007>008-015-261900-
EASTERN UPPER MICHIGAN

CITY           SKY/WX    TMP DP  RH WIND       PRES   REMARKS
KINROSS        LGT SNOW  30  26  85 S14G23    29.74F VSB 1   WCI  19
6HR MIN TEMP:  14; 6HR MAX TEMP:  30; 6HR PCP: TRACE;

MACKINAC ISLAN CLOUDY    30  23  75 S16G24    29.76F WCI  19
6HR MIN TEMP:  23; 6HR MAX TEMP:  31;

NEWBERRY       LGT SNOW  29  28  96 SW16      29.70F VSB 3/4 WCI  17
6HR MIN TEMP:  18; 6HR MAX TEMP:  29;

S. S. MARIE    LGT SNOW  31  25  78 S16G22    29.72F WCI  20
6HR MIN TEMP:  17; 6HR MAX TEMP:  31; 6HR PCP:  0.02;

MUNISING         N/A     29  21  72 S12G20    29.69F WCI  19
6HR MIN TEMP:  18; 6HR MAX TEMP:  29; 6HR PCP:  0.01;

$$
MIZ004>006-011>014-085-261900-
CENTRAL UPPER MICHIGAN

CITY           SKY/WX    TMP DP  RH WIND       PRES   REMARKS
MANISTIQUE     LGT SNOW  28  28  97 SW14G23   29.73F VSB 1   WCI  17
6HR MIN TEMP:  23; 6HR MAX TEMP:  29;

ESCANABA       CLOUDY    33  22  63 SW13      29.73F WCI  24
6HR MIN TEMP:  20; 6HR MAX TEMP:  33; 6HR PCP: TRACE;

MENOMINEE      MOSUNNY   33  20  58 SW16G23   29.75F WCI  23
6HR MIN TEMP:  21; 6HR MAX TEMP:  35; 6HR PCP: TRACE;

SAWYER-GWINN   CLOUDY    27  19  74 SW13G23   29.66  WCI  16
$$
MIZ001>003-009>011-084-261900-
WESTERN UPPER MICHIGAN

CITY           SKY/WX    TMP DP  RH WIND       PRES   REMARKS
IRON MOUNTAIN  CLOUDY    30  18  60 SW10G17   29.68F WCI  21
6HR MIN TEMP:  16; 6HR MAX TEMP:  30; 6HR PCP: TRACE;

HOUGHTON       FLURRIES  28  19  69 W10       29.60F WCI  19
6HR MIN TEMP:  22; 6HR MAX TEMP:  28; 6HR PCP:  0.01;

COPPER HARBOR    N/A     32  22  66 W9        29.61F WCI  24
6HR MIN TEMP:  23; 6HR MAX TEMP:  33; 6HR PCP:  0.04;

IRONWOOD       FLURRIES  29  22  75 W13       29.65S WCI  19
6HR MIN TEMP:  21; 6HR MAX TEMP:  29; 6HR PCP: TRACE;

$$

ABBREVIATIONS USED IN REMARKS
   TC - TEMPERATURE IN CELSIUS
  WCI - WIND CHILL INDEX
   HX - HEAT INDEX
  VSB - VISIBILITY





USA.gov is the U.S. government's official web portal to all federal, state and local government web resources and services.